Regional Weather Roundup
Issued by NWS State College, PA

Home | Current Version | Previous Version | Text Only | Print | Product List | Glossary On
Versions: 1 2 3 4 5 6 7 8 9 10 11 12 13 14 15 16 17 18 19 20 21 22 23 24 25 26 27 28 29 30 31 32 33 34 35 36 37 38 39 40 41 42 43 44 45 46 47 48 49 50
000
ASUS41 KCTP 032310
RWRCTP

REGIONAL WEATHER ROUNDUP
NATIONAL WEATHER SERVICE STATE COLLEGE PA
600 PM EST TUE MAR 03 2015

Note: "fair" indicates few or no clouds below 12,000 feet with no
significant weather and/or obstructions to visibility.

* = STATION THAT DOES NOT REPORT PRECIPITATION /E.G. RAIN...SNOW...ETC/
    THUNDER OR FOG.

PAZ002>004-007>009-013>016-020>023-029>032-040000-
WESTERN PENNSYLVANIA

CITY           SKY/WX    TMP DP  RH WIND       PRES   REMARKS
ERIE           CLOUDY    39  33  79 S20G31    29.61R
MEADVILLE      LGT RAIN  35  32  88 S8G18     29.63F
FRANKLIN*      CLOUDY    34  30  86 CALM      29.68F
NEW CASTLE     MIX PCPN  33  33 100 CALM      29.70S FOG
BEAVER COUNTY  LGT RAIN  34  34 100 S6        29.69F VSB 1/4
BUTLER*        CLOUDY    36  34  93 S6        29.73F
PITTSBURGH INT LGT RAIN  42  42 100 W5        29.72S FOG
PITTSBURGH     LGT RAIN  40  37  89 S13       29.69F
INDIANA*       CLOUDY    36  36 100 S9G15     29.75F FOG
LATROBE        LGT RAIN  46  46 100 SW12G23   29.74F FOG
WASHINGTON CO* CLOUDY    46  46 100 SW13G21   29.73F
$$

PAZ004>006-010>012-017>019-024>028-033>037-041-042-045-046-049>053-040000-
CENTRAL PENNSYLVANIA

CITY           SKY/WX    TMP DP  RH WIND       PRES   REMARKS
BRADFORD       FRZ RAIN  26  22  84 S14G22    29.67F FOG     WCI  14
DUBOIS         FRZ RAIN  31  29  92 SE10G16   29.72F FOG
CLEARFIELD     FRZ RAIN  28  26  92 SE6       29.79F FOG
JOHNSTOWN      FRZ RAIN  32  30  92 S14       29.74F FOG
ALTOONA        FRZ RAIN  28  24  85 S16G22    29.86F FOG
STATE COLLEGE  SLEET     25  21  86 S9        29.85F FOG
WILLIAMSPORT   SLEET     25  20  81 E10G23    29.94F VSB 1   WCI  15
SELINSGROVE    MIX PCPN  27  22  81 S10G18    29.97F
FT INDIANTOWN  FRZ RAIN  27  23  86 SE6       30.02F FOG
CAPITAL CITY   FRZ RAIN  29  25  85 SE10      30.02F FOG
HARRISBURG     FRZ RAIN  29  25  85 S13       30.02F FOG
YORK           FRZ RAIN  29  25  85 S7        30.01F FOG
$$

PAZ038>040-043-044-047-048-054-055-060>062-067>071-040000-
EASTERN PENNSYLVANIA

CITY           SKY/WX    TMP DP  RH WIND       PRES   REMARKS
SCRANTON       MIX PCPN  25  17  72 S6        29.93F
MOUNT POCONO   MIX PCPN  19  15  84 S16G24    29.92F VSB 1   WCI   4
ALLENTOWN      SLEET     27  21  80 SE6       30.08F
QUAKERTOWN*    CLOUDY    27  25  93 CALM      30.10F
READING        MIX PCPN  26  22  84 SE7       30.07F FOG
LANCASTER      MIX PCPN  27  25  92 S7        30.07F FOG
COATESVILLE    LGT SNOW  28  28 100 CALM      30.09S VSB 3/4
POTTSTOWN      MIX PCPN  26  26 100 CALM      30.12F FOG
BLUE BELL      CLOUDY    30  30 100 S5        30.10F
DOYLESTOWN     MIX PCPN  26  25  96 S6        30.10S FOG
WILLOW GROVE   NOT AVBL
NORTH PHILA    MIX PCPN  31  25  78 S6        30.14F
PHILADELPHIA   FRZ RAIN  32  29  88 S7        30.13F FOG
$$


USA.gov is the U.S. government's official web portal to all federal, state and local government web resources and services.